Print

CHIHRRCWA 000
TTAA00 KDVN 211404
HOURLY WEATHER ROUNDUP
NATIONAL WEATHER SERVICE QUAD CITIES IA IL
800 AM CST SUN DEC 21 2014

Note: "Fair" indicates few or no clouds below 12,000 feet with no
significant weather and/or obstructions to visibility.

* - These stations are not NWS stations...and not subject to NWS
quality control.  Some stations do not report weather such as fog.

...NORTHEAST IOWA..................................................

  
CITY           SKY/WX    TMP DP  RH WIND       PRES   REMARKS
DECORAH *      FOG       34  34 100 S12       29.98F VSB 1/2 WCI  25  
WATERLOO       CLOUDY    35  35 100 S13       29.99F WCI  26          
OELWEIN *      CLOUDY    36  36 100 S17       30.01F FOG     WCI  25  
INDEPENDENCE * CLOUDY    34  34 100 S15       30.01F FOG     WCI  24  
DUBUQUE        CLOUDY    33  32  96 S16       30.07F FOG     WCI  23  

...SOUTHWEST AND SOUTH CENTRAL WISCONSIN...........................

  
CITY           SKY/WX    TMP DP  RH WIND       PRES   REMARKS
PRAIRIE DU CHI CLOUDY    35  33  90 SE8       30.04F FOG     WCI  29  
BOSCOBEL       CLOUDY    36  32  85 VRB5      30.06F FOG     WCI  32  
LONE ROCK      CLOUDY    37  32  82 SE12      30.08F HAZE    WCI  29  
MINERAL POINT* NOT AVBL                                               
MONROE *       NOT AVBL                                               
JANESVILLE *   CLOUDY    34  30  86 S9        30.14F FOG     WCI  26  

...EAST CENTRAL IOWA...............................................

  
CITY           SKY/WX    TMP DP  RH WIND       PRES   REMARKS
MARSHALLTOWN   CLOUDY    37  35  92 S16       29.97F WCI  28          
NEWTON *       NOT AVBL                                               
VINTON *       CLOUDY    38  36  92 S13       30.02F FOG     WCI  30  
CEDAR RAPIDS   CLOUDY    36  35  96 S10       30.04F FOG     WCI  28  
IOWA CITY      CLOUDY    37  34  89 S13       30.09F WCI  29          
MONTICELLO *   CLOUDY    36  36 100 S13       30.06F FOG     WCI  27  
CLINTON *      CLOUDY    34  30  86 SE6       30.15F WCI  29          
DAVENPORT      CLOUDY    36  32  85 S12       30.12S WCI  28          

...NORTHWEST ILLINOIS..............................................

  
CITY           SKY/WX    TMP DP  RH WIND       PRES   REMARKS
FREEPORT *     CLOUDY    32  31  95 S14       30.15S FOG     WCI  22  
ROCKFORD       CLOUDY    33  29  85 S12       30.17F WCI  24          
SAVANNA *      CLOUDY    35  32  90 S8        30.13S FOG     WCI  28  
STERLING/R.F.* CLOUDY    34  28  80 S6        30.15F WCI  29          
ROCHELLE *     CLOUDY    32  30  93 S14       30.16F FOG     WCI  22  
MOLINE         CLOUDY    36  32  85 S8        30.12F WCI  30          
PERU *         NOT AVBL                                               

...SOUTHEAST IOWA AND NORTHEAST MISSOURI...........................

  
CITY           SKY/WX    TMP DP  RH WIND       PRES   REMARKS
KNOXVILLE *    CLOUDY    37  36  93 S15       29.99F WCI  28          
OTTUMWA        CLOUDY    38  34  85 S15       30.04F WCI  29          
FAIRFIELD *    CLOUDY    37  34  87 S12       30.08F WCI  30          
WASHINGTON *   CLOUDY    37  37 100 S13       30.08F WCI  29          
MT PLEASANT *  CLOUDY    37  35  94 S9        30.11F WCI  30          
BURLINGTON     LGT RAIN  38  34  85 S13       30.12F WCI  30          
KIRKSVILLE     CLOUDY    39  36  89 S8        30.09F WCI  33          

...WESTERN ILLINOIS................................................

  
CITY           SKY/WX    TMP DP  RH WIND       PRES   REMARKS
MACOMB *       CLOUDY    37  35  93 S8        30.17F FOG     WCI  30  
GALESBURG *    CLOUDY    35  33  94 SE7       30.14F FOG     WCI  29  
PEORIA         CLOUDY    36  30  79 S8        30.18F HAZE    WCI  30  
QUINCY         CLOUDY    38  34  85 SE8       30.14F WCI  32          

END...
  

USA.gov is the U.S. government's official web portal to all federal, state and local government web resources and services.